Time,TemperatureF,DewpointF,PressureIn,WindDirection,WindDirectionDegrees,WindSpeedMPH,WindSpeedGustMPH,Humidity,HourlyPrecipIn,Conditions,Clouds,dailyrainin,SoftwareType,DateUTC
2014-01-01 00:00:00,48.4,29.1,30.21,SE,143,0.0,1.0,47,0.00,,,0.00,Wunderground v.1.15,2014-01-01 08:00:00,
2014-01-01 00:05:00,48.3,29.0,30.21,SE,143,0.0,1.0,47,0.00,,,0.00,Wunderground v.1.15,2014-01-01 08:05:00,
2014-01-01 00:10:00,48.0,29.2,30.21,SE,143,0.0,1.0,48,0.00,,,0.00,Wunderground v.1.15,2014-01-01 08:10:00,
2014-01-01 00:15:00,47.9,29.1,30.21,SE,143,0.0,2.0,48,0.00,,,0.00,Wunderground v.1.15,2014-01-01 08:15:00,
2014-01-01 00:25:00,48.0,28.2,30.21,SE,143,0.0,1.0,46,0.00,,,0.00,Wunderground v.1.15,2014-01-01 08:25:00,
2014-01-01 00:30:00,48.4,28.0,30.21,SE,143,0.0,1.0,45,0.00,,,0.00,Wunderground v.1.15,2014-01-01 08:30:00,
2014-01-01 00:35:00,48.6,28.2,30.20,SE,143,0.0,1.0,45,0.00,,,0.00,Wunderground v.1.15,2014-01-01 08:35:00,
2014-01-01 00:45:00,48.8,27.8,30.20,SE,143,0.0,0.0,44,0.00,,,0.00,Wunderground v.1.15,2014-01-01 08:45:00,
2014-01-01 00:50:00,48.8,27.8,30.20,SE,143,0.0,0.0,44,0.00,,,0.00,Wunderground v.1.15,2014-01-01 08:50:00,
2014-01-01 00:55:00,48.8,28.4,30.20,SE,143,0.0,1.0,45,0.00,,,0.00,Wunderground v.1.15,2014-01-01 08:55:00,
2014-01-01 01:00:00,48.4,28.0,30.20,SE,143,0.0,1.0,45,0.00,,,0.00,Wunderground v.1.15,2014-01-01 09:00:00,
2014-01-01 01:05:00,48.6,28.2,30.20,SE,143,0.0,1.0,45,0.00,,,0.00,Wunderground v.1.15,2014-01-01 09:05:00,
2014-01-01 01:10:00,48.8,27.8,30.20,SE,143,0.0,0.0,44,0.00,,,0.00,Wunderground v.1.15,2014-01-01 09:10:00,
2014-01-01 01:15:00,49.0,28.0,30.20,SE,143,0.0,1.0,44,0.00,,,0.00,Wunderground v.1.15,2014-01-01 09:15:00,
2014-01-01 01:20:00,48.8,28.9,30.20,SE,143,0.0,0.0,46,0.00,,,0.00,Wunderground v.1.15,2014-01-01 09:20:00,
2014-01-01 01:30:00,48.2,28.9,30.20,SE,143,0.0,0.0,47,0.00,,,0.00,Wunderground v.1.15,2014-01-01 09:30:00,
2014-01-01 01:35:00,47.9,28.1,30.20,SE,143,0.0,1.0,46,0.00,,,0.00,Wunderground v.1.15,2014-01-01 09:35:00,
2014-01-01 01:40:00,47.7,28.9,30.21,SE,143,0.0,1.0,48,0.00,,,0.00,Wunderground v.1.15,2014-01-01 09:40:00,
2014-01-01 01:45:00,47.4,28.7,30.21,SE,143,0.0,1.0,48,0.00,,,0.00,Wunderground v.1.15,2014-01-01 09:45:00,
2014-01-01 01:55:00,47.1,28.9,30.21,SE,143,0.0,1.0,49,0.00,,,0.00,Wunderground v.1.15,2014-01-01 09:55:00,
2014-01-01 02:00:00,46.9,29.2,30.21,SE,143,0.0,1.0,50,0.00,,,0.00,Wunderground v.1.15,2014-01-01 10:00:00,
2014-01-01 02:05:00,46.7,29.0,30.21,SE,143,0.0,1.0,50,0.00,,,0.00,Wunderground v.1.15,2014-01-01 10:05:00,
2014-01-01 02:15:00,46.2,29.1,30.21,SE,143,0.0,2.0,51,0.00,,,0.00,Wunderground v.1.15,2014-01-01 10:15:00,
2014-01-01 02:20:00,46.1,28.5,30.21,SE,143,0.0,0.0,50,0.00,,,0.00,Wunderground v.1.15,2014-01-01 10:20:00,
2014-01-01 02:25:00,46.3,28.7,30.21,SE,143,0.0,0.0,50,0.00,,,0.00,Wunderground v.1.15,2014-01-01 10:25:00,
2014-01-01 02:35:00,46.2,28.6,30.21,SE,143,0.0,1.0,50,0.00,,,0.00,Wunderground v.1.15,2014-01-01 10:35:00,
2014-01-01 02:40:00,46.3,28.7,30.22,SE,143,0.0,0.0,50,0.00,,,0.00,Wunderground v.1.15,2014-01-01 10:40:00,
2014-01-01 02:45:00,46.3,28.7,30.22,SE,143,0.0,1.0,50,0.00,,,0.00,Wunderground v.1.15,2014-01-01 10:45:00,
2014-01-01 02:50:00,46.3,28.7,30.22,SE,143,0.0,0.0,50,0.00,,,0.00,Wunderground v.1.15,2014-01-01 10:50:00,
2014-01-01 03:00:00,46.2,28.6,30.22,SE,143,0.0,0.0,50,0.00,,,0.00,Wunderground v.1.15,2014-01-01 11:00:00,
2014-01-01 03:05:00,46.1,28.5,30.21,SE,143,0.0,0.0,50,0.00,,,0.00,Wunderground v.1.15,2014-01-01 11:05:00,
2014-01-01 03:10:00,46.2,28.6,30.21,SE,143,0.0,0.0,50,0.00,,,0.00,Wunderground v.1.15,2014-01-01 11:10:00,
2014-01-01 03:15:00,46.2,28.6,30.21,SE,143,0.0,0.0,50,0.00,,,0.00,Wunderground v.1.15,2014-01-01 11:15:00,
2014-01-01 03:25:00,46.1,28.0,30.21,SE,143,0.0,0.0,49,0.00,,,0.00,Wunderground v.1.15,2014-01-01 11:25:00,
2014-01-01 03:30:00,46.1,28.0,30.21,SE,143,0.0,0.0,49,0.00,,,0.00,Wunderground v.1.15,2014-01-01 11:30:00,
2014-01-01 03:35:00,46.1,28.0,30.21,SE,143,0.0,0.0,49,0.00,,,0.00,Wunderground v.1.15,2014-01-01 11:35:00,
2014-01-01 03:45:00,46.1,28.5,30.20,SE,143,0.0,0.0,50,0.00,,,0.00,Wunderground v.1.15,2014-01-01 11:45:00,
2014-01-01 03:50:00,45.9,28.3,30.20,SE,143,0.0,1.0,50,0.00,,,0.00,Wunderground v.1.15,2014-01-01 11:50:00,
2014-01-01 03:55:00,45.8,28.2,30.21,SE,143,0.0,1.0,50,0.00,,,0.00,Wunderground v.1.15,2014-01-01 11:55:00,
2014-01-01 04:00:00,45.8,28.2,30.20,SE,143,0.0,0.0,50,0.00,,,0.00,Wunderground v.1.15,2014-01-01 12:00:00,
2014-01-01 04:10:00,45.9,27.8,30.20,SE,143,0.0,0.0,49,0.00,,,0.00,Wunderground v.1.15,2014-01-01 12:10:00,
2014-01-01 04:15:00,45.9,28.3,30.20,SE,143,0.0,0.0,50,0.00,,,0.00,Wunderground v.1.15,2014-01-01 12:15:00,
2014-01-01 04:20:00,45.9,28.3,30.20,SE,143,0.0,0.0,50,0.00,,,0.00,Wunderground v.1.15,2014-01-01 12:20:00,
2014-01-01 04:25:00,45.9,29.2,30.19,SE,143,0.0,1.0,52,0.00,,,0.00,Wunderground v.1.15,2014-01-01 12:25:00,
2014-01-01 04:30:00,45.9,28.8,30.19,SE,143,0.0,0.0,51,0.00,,,0.00,Wunderground v.1.15,2014-01-01 12:30:00,
2014-01-01 04:35:00,45.9,28.3,30.19,SE,143,0.0,0.0,50,0.00,,,0.00,Wunderground v.1.15,2014-01-01 12:35:00,
2014-01-01 04:40:00,46.1,28.0,30.19,SE,143,0.0,0.0,49,0.00,,,0.00,Wunderground v.1.15,2014-01-01 12:40:00,
2014-01-01 04:50:00,46.5,27.8,30.19,SE,143,0.0,0.0,48,0.00,,,0.00,Wunderground v.1.15,2014-01-01 12:50:00,
2014-01-01 04:55:00,46.8,28.1,30.19,SE,143,0.0,0.0,48,0.00,,,0.00,Wunderground v.1.15,2014-01-01 12:55:00,
2014-01-01 05:00:00,46.9,28.2,30.19,SE,143,0.0,0.0,48,0.00,,,0.00,Wunderground v.1.15,2014-01-01 13:00:00,
2014-01-01 05:05:00,46.9,28.2,30.19,SE,143,0.0,0.0,48,0.00,,,0.00,Wunderground v.1.15,2014-01-01 13:05:00,
2014-01-01 05:15:00,46.9,28.2,30.19,SE,143,0.0,0.0,48,0.00,,,0.00,Wunderground v.1.15,2014-01-01 13:15:00,
2014-01-01 05:20:00,46.8,28.1,30.18,SE,143,0.0,0.0,48,0.00,,,0.00,Wunderground v.1.15,2014-01-01 13:20:00,
2014-01-01 05:25:00,46.8,28.1,30.19,SE,143,0.0,0.0,48,0.00,,,0.00,Wunderground v.1.15,2014-01-01 13:25:00,
2014-01-01 05:30:00,46.8,28.1,30.19,SE,143,0.0,0.0,48,0.00,,,0.00,Wunderground v.1.15,2014-01-01 13:30:00,
2014-01-01 05:40:00,46.8,28.1,30.19,SE,143,0.0,0.0,48,0.00,,,0.00,Wunderground v.1.15,2014-01-01 13:40:00,
2014-01-01 05:45:00,46.8,28.1,30.19,SE,143,0.0,0.0,48,0.00,,,0.00,Wunderground v.1.15,2014-01-01 13:45:00,
2014-01-01 05:50:00,46.8,28.1,30.19,SE,143,0.0,0.0,48,0.00,,,0.00,Wunderground v.1.15,2014-01-01 13:50:00,
2014-01-01 05:55:00,46.8,28.1,30.19,SE,143,0.0,0.0,48,0.00,,,0.00,Wunderground v.1.15,2014-01-01 13:55:00,
2014-01-01 06:05:00,46.8,28.6,30.19,SE,143,0.0,1.0,49,0.00,,,0.00,Wunderground v.1.15,2014-01-01 14:05:00,
2014-01-01 06:10:00,46.6,28.9,30.19,SE,143,0.0,0.0,50,0.00,,,0.00,Wunderground v.1.15,2014-01-01 14:10:00,
2014-01-01 06:20:00,46.9,28.2,30.19,SE,143,0.0,0.0,48,0.00,,,0.00,Wunderground v.1.15,2014-01-01 14:20:00,
2014-01-01 06:25:00,47.1,28.4,30.19,SE,143,0.0,0.0,48,0.00,,,0.00,Wunderground v.1.15,2014-01-01 14:25:00,
2014-01-01 06:30:00,47.1,28.9,30.19,SE,143,0.0,0.0,49,0.00,,,0.00,Wunderground v.1.15,2014-01-01 14:30:00,
2014-01-01 06:35:00,47.0,29.3,30.19,SE,143,0.0,0.0,50,0.00,,,0.00,Wunderground v.1.15,2014-01-01 14:35:00,
2014-01-01 06:40:00,46.7,28.5,30.19,SE,143,0.0,0.0,49,0.00,,,0.00,Wunderground v.1.15,2014-01-01 14:40:00,
2014-01-01 06:50:00,46.8,28.1,30.19,SE,143,0.0,0.0,48,0.00,,,0.00,Wunderground v.1.15,2014-01-01 14:50:00,
2014-01-01 06:55:00,47.0,28.3,30.19,SE,143,0.0,0.0,48,0.00,,,0.00,Wunderground v.1.15,2014-01-01 14:55:00,
2014-01-01 07:00:00,47.1,28.4,30.19,SE,143,0.0,0.0,48,0.00,,,0.00,Wunderground v.1.15,2014-01-01 15:00:00,
2014-01-01 07:05:00,47.3,28.1,30.20,SE,143,0.0,0.0,47,0.00,,,0.00,Wunderground v.1.15,2014-01-01 15:05:00,
2014-01-01 07:10:00,47.7,28.4,30.20,SE,143,0.0,0.0,47,0.00,,,0.00,Wunderground v.1.15,2014-01-01 15:10:00,
2014-01-01 07:20:00,48.2,28.4,30.20,SE,143,0.0,0.0,46,0.00,,,0.00,Wunderground v.1.15,2014-01-01 15:20:00,
2014-01-01 07:25:00,48.3,28.5,30.20,SE,143,0.0,0.0,46,0.00,,,0.00,Wunderground v.1.15,2014-01-01 15:25:00,
2014-01-01 07:30:00,48.3,28.5,30.20,SE,143,0.0,0.0,46,0.00,,,0.00,Wunderground v.1.15,2014-01-01 15:30:00,
2014-01-01 07:35:00,48.0,28.7,30.21,SE,143,0.0,0.0,47,0.00,,,0.00,Wunderground v.1.15,2014-01-01 15:35:00,
2014-01-01 07:40:00,47.7,28.4,30.21,SE,143,0.0,0.0,47,0.00,,,0.00,Wunderground v.1.15,2014-01-01 15:40:00,
2014-01-01 07:45:00,47.6,28.9,30.21,SE,143,0.0,0.0,48,0.00,,,0.00,Wunderground v.1.15,2014-01-01 15:45:00,
2014-01-01 07:55:00,47.9,28.6,30.20,SE,143,0.0,0.0,47,0.00,,,0.00,Wunderground v.1.15,2014-01-01 15:55:00,
2014-01-01 08:00:00,48.5,29.2,30.21,SE,143,0.0,0.0,47,0.00,,,0.00,Wunderground v.1.15,2014-01-01 16:00:00,
2014-01-01 08:05:00,49.0,29.6,30.21,SE,143,0.0,0.0,47,0.00,,,0.00,Wunderground v.1.15,2014-01-01 16:05:00,
2014-01-01 08:10:00,49.7,30.3,30.21,SE,143,0.0,0.0,47,0.00,,,0.00,Wunderground v.1.15,2014-01-01 16:10:00,
2014-01-01 08:15:00,50.0,30.5,30.21,SE,143,0.0,0.0,47,0.00,,,0.00,Wunderground v.1.15,2014-01-01 16:15:00,
2014-01-01 08:20:00,49.9,30.5,30.21,SE,143,0.0,0.0,47,0.00,,,0.00,Wunderground v.1.15,2014-01-01 16:20:00,
2014-01-01 08:25:00,50.2,31.8,30.22,SE,143,0.0,0.0,49,0.00,,,0.00,Wunderground v.1.15,2014-01-01 16:25:00,
2014-01-01 08:30:00,50.9,31.9,30.22,SE,143,0.0,0.0,48,0.00,,,0.00,Wunderground v.1.15,2014-01-01 16:30:00,
2014-01-01 08:40:00,51.4,32.3,30.22,SE,143,0.0,0.0,48,0.00,,,0.00,Wunderground v.1.15,2014-01-01 16:40:00,
2014-01-01 08:45:00,51.6,33.0,30.22,SE,143,0.0,0.0,49,0.00,,,0.00,Wunderground v.1.15,2014-01-01 16:45:00,
2014-01-01 08:55:00,52.3,32.6,30.22,SE,143,0.0,0.0,47,0.00,,,0.00,Wunderground v.1.15,2014-01-01 16:55:00,
2014-01-01 09:00:00,52.5,31.2,30.23,SE,143,0.0,1.0,44,0.00,,,0.00,Wunderground v.1.15,2014-01-01 17:00:00,
2014-01-01 09:05:00,52.9,32.7,30.23,SE,143,0.0,1.0,46,0.00,,,0.00,Wunderground v.1.15,2014-01-01 17:05:00,
2014-01-01 09:10:00,53.0,32.2,30.23,SE,143,0.0,1.0,45,0.00,,,0.00,Wunderground v.1.15,2014-01-01 17:10:00,
2014-01-01 09:15:00,53.2,31.3,30.23,SE,143,0.0,1.0,43,0.00,,,0.00,Wunderground v.1.15,2014-01-01 17:15:00,
2014-01-01 09:25:00,53.8,31.8,30.23,SE,143,0.0,1.0,43,0.00,,,0.00,Wunderground v.1.15,2014-01-01 17:25:00,
2014-01-01 09:30:00,54.0,31.4,30.24,SE,143,0.0,1.0,42,0.00,,,0.00,Wunderground v.1.15,2014-01-01 17:30:00,
2014-01-01 09:40:00,54.6,30.1,30.24,SE,143,0.0,1.0,39,0.00,,,0.00,Wunderground v.1.15,2014-01-01 17:40:00,
2014-01-01 09:45:00,55.1,30.6,30.24,SE,143,0.0,1.0,39,0.00,,,0.00,Wunderground v.1.15,2014-01-01 17:45:00,
2014-01-01 09:50:00,55.4,30.8,30.24,SE,143,0.0,2.0,39,0.00,,,0.00,Wunderground v.1.15,2014-01-01 17:50:00,
2014-01-01 09:55:00,55.7,31.7,30.24,SE,143,1.0,2.0,40,0.00,,,0.00,Wunderground v.1.15,2014-01-01 17:55:00,
2014-01-01 10:00:00,55.9,33.1,30.23,SE,143,1.0,1.0,42,0.00,,,0.00,Wunderground v.1.15,2014-01-01 18:00:00,
2014-01-01 10:10:00,56.4,33.6,30.23,SE,143,1.0,2.0,42,0.00,,,0.00,Wunderground v.1.15,2014-01-01 18:10:00,
2014-01-01 10:15:00,56.7,32.6,30.23,SE,143,1.0,2.0,40,0.00,,,0.00,Wunderground v.1.15,2014-01-01 18:15:00,
2014-01-01 10:20:00,56.8,32.7,30.23,SE,143,0.0,3.0,40,0.00,,,0.00,Wunderground v.1.15,2014-01-01 18:20:00,
2014-01-01 10:25:00,57.1,32.4,30.22,SE,143,1.0,3.0,39,0.00,,,0.00,Wunderground v.1.15,2014-01-01 18:25:00,
2014-01-01 10:30:00,57.2,33.1,30.22,SE,143,1.0,1.0,40,0.00,,,0.00,Wunderground v.1.15,2014-01-01 18:30:00,
2014-01-01 10:35:00,57.3,33.8,30.22,SE,143,1.0,3.0,41,0.00,,,0.00,Wunderground v.1.15,2014-01-01 18:35:00,
2014-01-01 10:40:00,57.9,33.7,30.22,SE,143,1.0,1.0,40,0.00,,,0.00,Wunderground v.1.15,2014-01-01 18:40:00,
2014-01-01 10:45:00,58.4,34.2,30.22,SE,145,1.0,5.0,40,0.00,,,0.00,Wunderground v.1.15,2014-01-01 18:45:00,
2014-01-01 10:50:00,58.6,33.7,30.22,SE,145,1.0,5.0,39,0.00,,,0.00,Wunderground v.1.15,2014-01-01 18:50:00,
2014-01-01 10:55:00,59.5,33.9,30.22,SE,145,1.0,5.0,38,0.00,,,0.00,Wunderground v.1.15,2014-01-01 18:55:00,
2014-01-01 11:05:00,60.6,33.5,30.22,SE,145,1.0,3.0,36,0.00,,,0.00,Wunderground v.1.15,2014-01-01 19:05:00,
2014-01-01 11:15:00,61.4,33.5,30.21,ESE,113,2.0,4.0,35,0.00,,,0.00,Wunderground v.1.15,2014-01-01 19:15:00,
2014-01-01 11:20:00,61.6,33.7,30.21,ESE,123,1.0,5.0,35,0.00,,,0.00,Wunderground v.1.15,2014-01-01 19:20:00,
2014-01-01 11:25:00,61.3,32.7,30.21,SSE,155,2.0,7.0,34,0.00,,,0.00,Wunderground v.1.15,2014-01-01 19:25:00,
2014-01-01 11:30:00,61.3,33.4,30.20,East,95,3.0,7.0,35,0.00,,,0.00,Wunderground v.1.15,2014-01-01 19:30:00,
2014-01-01 11:35:00,61.9,31.7,30.20,SE,132,2.0,7.0,32,0.00,,,0.00,Wunderground v.1.15,2014-01-01 19:35:00,
2014-01-01 11:40:00,62.3,32.0,30.20,SSE,161,2.0,6.0,32,0.00,,,0.00,Wunderground v.1.15,2014-01-01 19:40:00,
2014-01-01 11:50:00,62.3,31.3,30.20,SE,140,3.0,7.0,31,0.00,,,0.00,Wunderground v.1.15,2014-01-01 19:50:00,
2014-01-01 11:55:00,62.3,29.6,30.19,SE,138,4.0,10.0,29,0.00,,,0.00,Wunderground v.1.15,2014-01-01 19:55:00,
2014-01-01 12:00:00,62.9,29.3,30.19,SE,129,3.0,6.0,28,0.00,,,0.00,Wunderground v.1.15,2014-01-01 20:00:00,
2014-01-01 12:10:00,63.2,29.5,30.19,SE,136,3.0,3.0,28,0.00,,,0.00,Wunderground v.1.15,2014-01-01 20:10:00,
2014-01-01 12:15:00,63.4,28.8,30.19,East,97,2.0,6.0,27,0.00,,,0.00,Wunderground v.1.15,2014-01-01 20:15:00,
2014-01-01 12:20:00,63.8,30.0,30.18,ESE,111,2.0,6.0,28,0.00,,,0.00,Wunderground v.1.15,2014-01-01 20:20:00,
2014-01-01 12:30:00,63.7,29.1,30.18,East,89,2.0,2.0,27,0.00,,,0.00,Wunderground v.1.15,2014-01-01 20:30:00,
2014-01-01 12:35:00,63.7,29.1,30.18,SE,136,2.0,3.0,27,0.00,,,0.00,Wunderground v.1.15,2014-01-01 20:35:00,
2014-01-01 12:40:00,63.7,29.1,30.18,ESE,117,3.0,3.0,27,0.00,,,0.00,Wunderground v.1.15,2014-01-01 20:40:00,
2014-01-01 12:50:00,63.7,29.1,30.18,East,82,2.0,6.0,27,0.00,,,0.00,Wunderground v.1.15,2014-01-01 20:50:00,
2014-01-01 12:55:00,63.5,29.8,30.18,East,86,2.0,6.0,28,0.00,,,0.00,Wunderground v.1.15,2014-01-01 20:55:00,
2014-01-01 13:00:00,63.3,29.6,30.17,East,84,2.0,6.0,28,0.00,,,0.00,Wunderground v.1.15,2014-01-01 21:00:00,
2014-01-01 13:05:00,63.2,29.5,30.17,SE,128,2.0,6.0,28,0.00,,,0.00,Wunderground v.1.15,2014-01-01 21:05:00,
2014-01-01 13:15:00,63.6,29.9,30.17,ENE,67,2.0,4.0,28,0.00,,,0.00,Wunderground v.1.15,2014-01-01 21:15:00,
2014-01-01 13:20:00,63.6,29.9,30.17,East,84,2.0,6.0,28,0.00,,,0.00,Wunderground v.1.15,2014-01-01 21:20:00,
2014-01-01 13:25:00,63.5,29.8,30.17,SSE,150,2.0,6.0,28,0.00,,,0.00,Wunderground v.1.15,2014-01-01 21:25:00,
2014-01-01 13:30:00,63.3,29.6,30.17,SE,142,1.0,5.0,28,0.00,,,0.00,Wunderground v.1.15,2014-01-01 21:30:00,
2014-01-01 13:35:00,63.1,29.4,30.17,East,87,2.0,5.0,28,0.00,,,0.00,Wunderground v.1.15,2014-01-01 21:35:00,
2014-01-01 13:40:00,62.9,29.3,30.16,SE,130,2.0,2.0,28,0.00,,,0.00,Wunderground v.1.15,2014-01-01 21:40:00,
2014-01-01 13:45:00,62.9,30.1,30.16,ESE,106,1.0,4.0,29,0.00,,,0.00,Wunderground v.1.15,2014-01-01 21:45:00,
2014-01-01 13:55:00,63.2,30.4,30.16,East,100,1.0,4.0,29,0.00,,,0.00,Wunderground v.1.15,2014-01-01 21:55:00,
2014-01-01 14:00:00,63.0,29.4,30.15,ESE,107,1.0,1.0,28,0.00,,,0.00,Wunderground v.1.15,2014-01-01 22:00:00,
2014-01-01 14:05:00,62.7,30.0,30.16,East,89,1.0,5.0,29,0.00,,,0.00,Wunderground v.1.15,2014-01-01 22:05:00,
2014-01-01 14:10:00,62.5,29.8,30.16,ESE,117,1.0,1.0,29,0.00,,,0.00,Wunderground v.1.15,2014-01-01 22:10:00,
2014-01-01 14:20:00,62.3,30.4,30.16,East,86,1.0,6.0,30,0.00,,,0.00,Wunderground v.1.15,2014-01-01 22:20:00,
2014-01-01 14:25:00,62.3,30.4,30.16,East,81,1.0,6.0,30,0.00,,,0.00,Wunderground v.1.15,2014-01-01 22:25:00,
2014-01-01 14:35:00,61.9,30.9,30.16,SE,129,2.0,6.0,31,0.00,,,0.00,Wunderground v.1.15,2014-01-01 22:35:00,
2014-01-01 14:40:00,61.8,30.0,30.16,SE,140,2.0,2.0,30,0.00,,,0.00,Wunderground v.1.15,2014-01-01 22:40:00,
2014-01-01 14:45:00,61.8,30.0,30.16,SE,140,1.0,4.0,30,0.00,,,0.00,Wunderground v.1.15,2014-01-01 22:45:00,
2014-01-01 14:50:00,61.8,30.0,30.16,SE,140,0.0,2.0,30,0.00,,,0.00,Wunderground v.1.15,2014-01-01 22:50:00,
2014-01-01 14:55:00,61.7,29.9,30.16,SE,131,0.0,3.0,30,0.00,,,0.00,Wunderground v.1.15,2014-01-01 22:55:00,
2014-01-01 15:00:00,61.6,29.8,30.16,SE,131,0.0,2.0,30,0.00,,,0.00,Wunderground v.1.15,2014-01-01 23:00:00,
2014-01-01 15:10:00,61.7,30.7,30.17,SE,131,0.0,1.0,31,0.00,,,0.00,Wunderground v.1.15,2014-01-01 23:10:00,
2014-01-01 15:15:00,61.7,30.7,30.16,SE,131,0.0,1.0,31,0.00,,,0.00,Wunderground v.1.15,2014-01-01 23:15:00,
2014-01-01 15:20:00,61.6,30.6,30.16,SE,131,0.0,1.0,31,0.00,,,0.00,Wunderground v.1.15,2014-01-01 23:20:00,
2014-01-01 15:30:00,61.4,30.5,30.16,SE,131,0.0,0.0,31,0.00,,,0.00,Wunderground v.1.15,2014-01-01 23:30:00,
2014-01-01 15:35:00,61.3,29.6,30.16,SE,131,0.0,0.0,30,0.00,,,0.00,Wunderground v.1.15,2014-01-01 23:35:00,
2014-01-01 15:45:00,61.2,31.1,30.16,SE,131,0.0,1.0,32,0.00,,,0.00,Wunderground v.1.15,2014-01-01 23:45:00,
2014-01-01 15:50:00,61.1,31.8,30.16,SE,131,0.0,1.0,33,0.00,,,0.00,Wunderground v.1.15,2014-01-01 23:50:00,
2014-01-01 15:55:00,61.0,31.7,30.16,SE,131,0.0,1.0,33,0.00,,,0.00,Wunderground v.1.15,2014-01-01 23:55:00,
2014-01-01 16:00:00,60.9,31.6,30.16,SE,131,0.0,1.0,33,0.00,,,0.00,Wunderground v.1.15,2014-01-02 00:00:00,
2014-01-01 16:10:00,60.7,32.1,30.16,SE,131,0.0,1.0,34,0.00,,,0.00,Wunderground v.1.15,2014-01-02 00:10:00,
2014-01-01 16:15:00,60.7,31.4,30.16,SE,131,0.0,1.0,33,0.00,,,0.00,Wunderground v.1.15,2014-01-02 00:15:00,
2014-01-01 16:20:00,60.5,32.0,30.16,SE,131,0.0,0.0,34,0.00,,,0.00,Wunderground v.1.15,2014-01-02 00:20:00,
2014-01-01 16:30:00,60.2,32.4,30.16,SE,131,0.0,0.0,35,0.00,,,0.00,Wunderground v.1.15,2014-01-02 00:30:00,
2014-01-01 16:35:00,59.9,32.2,30.16,SE,131,0.0,0.0,35,0.00,,,0.00,Wunderground v.1.15,2014-01-02 00:35:00,
2014-01-01 16:40:00,59.3,33.0,30.15,SE,131,0.0,0.0,37,0.00,,,0.00,Wunderground v.1.15,2014-01-02 00:40:00,
2014-01-01 16:45:00,58.9,34.0,30.15,SE,131,0.0,0.0,39,0.00,,,0.00,Wunderground v.1.15,2014-01-02 00:45:00,
2014-01-01 16:50:00,58.4,32.9,30.16,SE,131,0.0,0.0,38,0.00,,,0.00,Wunderground v.1.15,2014-01-02 00:50:00,
2014-01-01 17:00:00,57.2,33.1,30.16,SE,131,0.0,1.0,40,0.00,,,0.00,Wunderground v.1.15,2014-01-02 01:00:00,
2014-01-01 17:05:00,56.7,33.2,30.16,SE,131,0.0,1.0,41,0.00,,,0.00,Wunderground v.1.15,2014-01-02 01:05:00,
2014-01-01 17:10:00,56.2,31.5,30.16,SE,131,0.0,1.0,39,0.00,,,0.00,Wunderground v.1.15,2014-01-02 01:10:00,
2014-01-01 17:20:00,55.8,31.8,30.16,SE,131,0.0,0.0,40,0.00,,,0.00,Wunderground v.1.15,2014-01-02 01:20:00,
2014-01-01 17:25:00,55.7,31.7,30.16,SE,131,0.0,1.0,40,0.00,,,0.00,Wunderground v.1.15,2014-01-02 01:25:00,
2014-01-01 17:30:00,55.5,32.2,30.16,SE,131,0.0,0.0,41,0.00,,,0.00,Wunderground v.1.15,2014-01-02 01:30:00,
2014-01-01 17:35:00,55.4,31.5,30.16,SE,131,0.0,0.0,40,0.00,,,0.00,Wunderground v.1.15,2014-01-02 01:35:00,
2014-01-01 17:40:00,55.4,31.5,30.16,SE,131,0.0,0.0,40,0.00,,,0.00,Wunderground v.1.15,2014-01-02 01:40:00,
2014-01-01 17:45:00,55.3,31.4,30.16,SE,131,0.0,0.0,40,0.00,,,0.00,Wunderground v.1.15,2014-01-02 01:45:00,
2014-01-01 17:55:00,54.8,32.1,30.16,SE,131,0.0,0.0,42,0.00,,,0.00,Wunderground v.1.15,2014-01-02 01:55:00,
2014-01-01 18:00:00,54.5,31.9,30.16,SE,131,0.0,0.0,42,0.00,,,0.00,Wunderground v.1.15,2014-01-02 02:00:00,
2014-01-01 18:05:00,54.3,31.7,30.16,SE,131,0.0,0.0,42,0.00,,,0.00,Wunderground v.1.15,2014-01-02 02:05:00,
2014-01-01 18:15:00,53.9,31.9,30.16,SE,131,0.0,0.0,43,0.00,,,0.00,Wunderground v.1.15,2014-01-02 02:15:00,
2014-01-01 18:20:00,53.8,31.8,30.17,SE,131,0.0,0.0,43,0.00,,,0.00,Wunderground v.1.15,2014-01-02 02:20:00,
2014-01-01 18:25:00,53.8,31.8,30.17,SE,131,0.0,0.0,43,0.00,,,0.00,Wunderground v.1.15,2014-01-02 02:25:00,
2014-01-01 18:30:00,53.8,31.8,30.17,SE,131,0.0,0.0,43,0.00,,,0.00,Wunderground v.1.15,2014-01-02 02:30:00,
2014-01-01 18:40:00,53.6,31.0,30.17,SE,131,0.0,0.0,42,0.00,,,0.00,Wunderground v.1.15,2014-01-02 02:40:00,
2014-01-01 18:45:00,53.5,31.5,30.17,SE,131,0.0,0.0,43,0.00,,,0.00,Wunderground v.1.15,2014-01-02 02:45:00,
2014-01-01 18:50:00,53.6,30.4,30.17,SE,131,0.0,1.0,41,0.00,,,0.00,Wunderground v.1.15,2014-01-02 02:50:00,
2014-01-01 19:00:00,54.1,30.9,30.17,SE,131,0.0,1.0,41,0.00,,,0.00,Wunderground v.1.15,2014-01-02 03:00:00,
2014-01-01 19:05:00,54.1,30.3,30.17,SE,131,0.0,1.0,40,0.00,,,0.00,Wunderground v.1.15,2014-01-02 03:05:00,
2014-01-01 19:10:00,54.1,30.9,30.17,SE,131,0.0,0.0,41,0.00,,,0.00,Wunderground v.1.15,2014-01-02 03:10:00,
2014-01-01 19:15:00,53.9,31.3,30.17,SE,131,0.0,0.0,42,0.00,,,0.00,Wunderground v.1.15,2014-01-02 03:15:00,
2014-01-01 19:20:00,53.7,31.1,30.17,SE,131,0.0,0.0,42,0.00,,,0.00,Wunderground v.1.15,2014-01-02 03:20:00,
2014-01-01 19:30:00,53.6,31.0,30.17,SE,131,0.0,0.0,42,0.00,,,0.00,Wunderground v.1.15,2014-01-02 03:30:00,
2014-01-01 19:35:00,53.5,30.4,30.17,SE,131,0.0,1.0,41,0.00,,,0.00,Wunderground v.1.15,2014-01-02 03:35:00,
2014-01-01 19:45:00,53.8,30.0,30.18,SE,131,0.0,1.0,40,0.00,,,0.00,Wunderground v.1.15,2014-01-02 03:45:00,
2014-01-01 19:50:00,53.8,30.0,30.18,SE,131,0.0,0.0,40,0.00,,,0.00,Wunderground v.1.15,2014-01-02 03:50:00,
2014-01-01 19:55:00,53.8,30.0,30.17,SE,131,0.0,1.0,40,0.00,,,0.00,Wunderground v.1.15,2014-01-02 03:55:00,
2014-01-01 20:00:00,53.9,30.7,30.18,SE,131,0.0,0.0,41,0.00,,,0.00,Wunderground v.1.15,2014-01-02 04:00:00,
2014-01-01 20:10:00,53.7,29.9,30.17,SE,131,0.0,0.0,40,0.00,,,0.00,Wunderground v.1.15,2014-01-02 04:10:00,
2014-01-01 20:15:00,53.7,30.5,30.18,SE,131,0.0,0.0,41,0.00,,,0.00,Wunderground v.1.15,2014-01-02 04:15:00,
2014-01-01 20:20:00,53.7,31.1,30.18,SE,131,0.0,0.0,42,0.00,,,0.00,Wunderground v.1.15,2014-01-02 04:20:00,
2014-01-01 20:30:00,53.6,31.6,30.18,SE,131,0.0,0.0,43,0.00,,,0.00,Wunderground v.1.15,2014-01-02 04:30:00,
2014-01-01 20:35:00,53.6,31.6,30.17,SE,131,0.0,0.0,43,0.00,,,0.00,Wunderground v.1.15,2014-01-02 04:35:00,
2014-01-01 20:40:00,53.5,31.0,30.17,SE,131,0.0,0.0,42,0.00,,,0.00,Wunderground v.1.15,2014-01-02 04:40:00,
2014-01-01 20:45:00,53.4,31.4,30.18,SE,131,0.0,0.0,43,0.00,,,0.00,Wunderground v.1.15,2014-01-02 04:45:00,
2014-01-01 20:55:00,53.3,31.9,30.18,SE,131,0.0,0.0,44,0.00,,,0.00,Wunderground v.1.15,2014-01-02 04:55:00,
2014-01-01 21:00:00,53.3,31.9,30.18,SE,131,0.0,0.0,44,0.00,,,0.00,Wunderground v.1.15,2014-01-02 05:00:00,
2014-01-01 21:05:00,53.4,32.0,30.18,SE,131,0.0,0.0,44,0.00,,,0.00,Wunderground v.1.15,2014-01-02 05:05:00,
2014-01-01 21:10:00,53.5,31.0,30.18,SE,131,0.0,0.0,42,0.00,,,0.00,Wunderground v.1.15,2014-01-02 05:10:00,
2014-01-01 21:15:00,53.5,31.5,30.18,SE,131,0.0,0.0,43,0.00,,,0.00,Wunderground v.1.15,2014-01-02 05:15:00,
2014-01-01 21:20:00,53.3,30.8,30.18,SE,131,0.0,0.0,42,0.00,,,0.00,Wunderground v.1.15,2014-01-02 05:20:00,
2014-01-01 21:25:00,53.2,30.7,30.18,SE,131,0.0,0.0,42,0.00,,,0.00,Wunderground v.1.15,2014-01-02 05:25:00,
2014-01-01 21:30:00,53.0,31.1,30.18,SE,131,0.0,0.0,43,0.00,,,0.00,Wunderground v.1.15,2014-01-02 05:30:00,
2014-01-01 21:40:00,52.3,31.0,30.18,SE,131,0.0,0.0,44,0.00,,,0.00,Wunderground v.1.15,2014-01-02 05:40:00,
2014-01-01 21:45:00,51.9,30.6,30.18,SE,131,0.0,0.0,44,0.00,,,0.00,Wunderground v.1.15,2014-01-02 05:45:00,
2014-01-01 21:50:00,51.6,30.9,30.18,SE,131,0.0,0.0,45,0.00,,,0.00,Wunderground v.1.15,2014-01-02 05:50:00,
2014-01-01 21:55:00,51.4,30.7,30.18,SE,131,0.0,0.0,45,0.00,,,0.00,Wunderground v.1.15,2014-01-02 05:55:00,
2014-01-01 22:05:00,51.6,30.9,30.18,SE,131,0.0,1.0,45,0.00,,,0.00,Wunderground v.1.15,2014-01-02 06:05:00,
2014-01-01 22:10:00,51.7,31.0,30.18,SE,131,0.0,0.0,45,0.00,,,0.00,Wunderground v.1.15,2014-01-02 06:10:00,
2014-01-01 22:15:00,51.8,30.0,30.18,SE,131,0.0,0.0,43,0.00,,,0.00,Wunderground v.1.15,2014-01-02 06:15:00,
2014-01-01 22:25:00,52.2,30.4,30.18,SE,131,0.0,0.0,43,0.00,,,0.00,Wunderground v.1.15,2014-01-02 06:25:00,
2014-01-01 22:30:00,52.1,30.3,30.18,SE,131,0.0,0.0,43,0.00,,,0.00,Wunderground v.1.15,2014-01-02 06:30:00,
2014-01-01 22:35:00,51.8,30.0,30.18,SE,131,0.0,0.0,43,0.00,,,0.00,Wunderground v.1.15,2014-01-02 06:35:00,
2014-01-01 22:45:00,51.7,29.9,30.18,SE,131,0.0,0.0,43,0.00,,,0.00,Wunderground v.1.15,2014-01-02 06:45:00,
2014-01-01 22:50:00,51.7,30.5,30.18,SE,131,0.0,0.0,44,0.00,,,0.00,Wunderground v.1.15,2014-01-02 06:50:00,
2014-01-01 22:55:00,51.6,30.9,30.19,SE,131,0.0,0.0,45,0.00,,,0.00,Wunderground v.1.15,2014-01-02 06:55:00,
2014-01-01 23:00:00,51.4,30.2,30.18,SE,131,0.0,0.0,44,0.00,,,0.00,Wunderground v.1.15,2014-01-02 07:00:00,
2014-01-01 23:10:00,51.1,30.5,30.19,SE,131,0.0,0.0,45,0.00,,,0.00,Wunderground v.1.15,2014-01-02 07:10:00,
2014-01-01 23:15:00,51.0,30.4,30.19,SE,131,0.0,0.0,45,0.00,,,0.00,Wunderground v.1.15,2014-01-02 07:15:00,
2014-01-01 23:20:00,50.9,30.3,30.19,SE,131,0.0,0.0,45,0.00,,,0.00,Wunderground v.1.15,2014-01-02 07:20:00,
2014-01-01 23:30:00,50.5,31.0,30.18,SE,131,0.0,0.0,47,0.00,,,0.00,Wunderground v.1.15,2014-01-02 07:30:00,
2014-01-01 23:35:00,50.7,31.2,30.18,SE,131,0.0,0.0,47,0.00,,,0.00,Wunderground v.1.15,2014-01-02 07:35:00,
2014-01-01 23:40:00,51.0,31.5,30.19,SE,131,0.0,0.0,47,0.00,,,0.00,Wunderground v.1.15,2014-01-02 07:40:00,
2014-01-01 23:50:00,50.6,31.6,30.18,SE,131,0.0,0.0,48,0.00,,,0.00,Wunderground v.1.15,2014-01-02 07:50:00,
2014-01-01 23:55:00,50.6,31.6,30.18,SE,131,0.0,1.0,48,0.00,,,0.00,Wunderground v.1.15,2014-01-02 07:55:00,